[[[{"header":{"parameterUnit":"kt","parameterCategory":2,"dx":1,"dy":1,"la1":30.253999710083008,"la2":30.299108505249023,"lo1":-89.0895004272461,"lo2":-89.04439544677734,"nx":28,"ny":28,"refTime":"2022-10-14T21:00:00:Z","depth":"0","parameterNumber":2,"parameterNumberName":"U-component_of_CURRENTS"},"data":[0.1923,0.191,0.1925,0.1875,0.1873,0.1842,0.1852,0.1898,0.201,0.2194,0.2381,0.2611,0.3073,0.3414,0.3559,0.3529,0.3218,0.307,0.2956,0.3372,0.3396,0.3419,0.3348,0.3179,0.3178,0.2413,0.2406,0.2401,0.1977,0.2001,0.2003,0.2,0.1986,0.2031,0.2089,0.21,0.2175,0.2364,0.251,0.2892,0.3218,0.3566,0.3918,0.3835,0.3731,0.3691,0.3446,0.3381,0.3929,0.3878,0.382,0.382,0.382,0.382,0.382,0.3821,0.2079,0.2071,0.2092,0.2086,0.2108,0.2131,0.2131,0.2233,0.2329,0.2482,0.2674,0.2881,0.3294,0.3771,0.3915,0.4084,0.396,0.4044,0.3919,0.3761,0.3604,0.4092,0.4187,0.4188,0.4188,0.4189,0.4189,0,0.2155,0.2183,0.2177,0.2176,0.2193,0.2218,0.2279,0.2321,0.2494,0.2605,0.2789,0.2954,0.3342,0.3622,0.3933,0.4103,0.3999,0.4217,0.4102,0.3906,0.3633,0.3539,0.4093,0.4207,0.4207,0.4208,0.4208,0.4208,0.2281,0.2251,0.2269,0.2268,0.2273,0.2304,0.2349,0.2474,0.2551,0.2771,0.2835,0.3079,0.3278,0.3657,0.3925,0.4185,0.4047,0.4227,0.4228,0.4043,0.3922,0.3737,0.3641,0.4215,0.4214,0.4213,0.4213,0,0.2368,0.2368,0.2325,0.2362,0.2376,0.2385,0.2478,0.2546,0.268,0.2811,0.2865,0.312,0.3358,0.3593,0.389,0.3995,0.4082,0.424,0.4123,0.4133,0.4048,0.3921,0.379,0.368,0.4305,0.4305,0.4304,0,0.2476,0.2437,0.2454,0.2425,0.2432,0.2493,0.2551,0.2644,0.2795,0.2895,0.3076,0.3194,0.3467,0.3647,0.3812,0.4013,0.4063,0.4136,0.4161,0.4113,0.4101,0.406,0.3938,0.4244,0.4244,0.4243,0.4243,0,0.258,0.2537,0.2495,0.2491,0.2533,0.256,0.2611,0.2765,0.2841,0.3024,0.3096,0.332,0.343,0.3616,0.3812,0.3808,0.4063,0.408,0.4123,0.4117,0.4156,0.4149,0.4101,0.4242,0.4242,0.4241,0.4241,0,0.2661,0.2628,0.2566,0.259,0.259,0.26,0.2717,0.2773,0.2954,0.3035,0.3185,0.331,0.3488,0.3518,0.3777,0.3726,0.3827,0.3922,0.3928,0.3948,0.3937,0.3941,0.3991,0.3872,0.3956,0.3954,0.3952,0,0.2774,0.2689,0.2698,0.266,0.2627,0.2711,0.2765,0.2857,0.2952,0.3059,0.3216,0.3338,0.3403,0.3474,0.3579,0.3742,0.3808,0.3731,0.394,0.3946,0.3882,0.3934,0.3892,0.3961,0.3926,0.3929,0.3931,0,0.2854,0.2803,0.2792,0.2777,0.2792,0.2794,0.2843,0.2918,0.2985,0.3061,0.316,0.3324,0.3401,0.3489,0.359,0.368,0.376,0.3726,0.3734,0.3724,0.3941,0.39,0.3913,0.3822,0.3826,0.3829,0.391,0,0.2942,0.2897,0.2863,0.2833,0.2845,0.2821,0.2885,0.2922,0.2983,0.305,0.3186,0.3305,0.3447,0.3482,0.3557,0.3681,0.3684,0.3727,0.3736,0.3769,0.3796,0.3812,0.365,0.3652,0.3653,0.3654,0,0,0.3043,0.2969,0.2972,0.2931,0.2935,0.2989,0.2964,0.3006,0.307,0.3125,0.3134,0.3354,0.3436,0.3585,0.3603,0.3637,0.3685,0.3633,0.3748,0.3757,0.3767,0.3794,0.3808,0.3656,0.3657,0.3657,0.3658,0,0.3061,0.304,0.2983,0.2983,0.298,0.3008,0.3008,0.3032,0.3071,0.3129,0.323,0.3328,0.3436,0.3534,0.3603,0.3644,0.3694,0.3666,0.3651,0.3754,0.3762,0.377,0.3797,0.3809,0.3661,0.3661,0.3661,0,0.3127,0.3108,0.3082,0.3056,0.3059,0.305,0.3098,0.309,0.3113,0.3214,0.3264,0.3351,0.3477,0.3548,0.3589,0.3594,0.3704,0.3662,0.3659,0.368,0.3789,0.3798,0.3806,0.3703,0.3703,0.3702,0,0,0.3147,0.3099,0.3107,0.3064,0.3059,0.3093,0.3098,0.3121,0.3174,0.3199,0.3266,0.3361,0.3459,0.3502,0.3578,0.3635,0.3692,0.366,0.3659,0.3656,0.3675,0.3784,0.3793,0.37,0.37,0.37,0,0,0.3167,0.3143,0.3152,0.3099,0.3108,0.3132,0.3119,0.3157,0.3215,0.323,0.3323,0.3348,0.3431,0.3485,0.345,0.3572,0.3591,0.3599,0.351,0.3509,0.3507,0.3508,0.3484,0,0,0,0,0,0.3189,0.3141,0.3148,0.3142,0.3126,0.3121,0.3125,0.3159,0.3193,0.3183,0.3276,0.3304,0.3493,0.3464,0.3482,0.349,0.3674,0.3679,0.3683,0.3585,0.3583,0.3581,0,0,0,0,0,0,0.3186,0.3176,0.3151,0.3166,0.3164,0.3123,0.3169,0.3177,0.3194,0.32,0.3287,0.3306,0.3359,0.3458,0.3474,0.348,0.3479,0.3676,0.368,0.3684,0.3584,0.3582,0.3581,0,0,0,0,0,0.3185,0.3177,0.3131,0.3169,0.3167,0.3203,0.317,0.3177,0.3193,0.3273,0.3291,0.322,0.3357,0.3377,0.3467,0.3471,0.3468,0.3474,0.3679,0.3682,0.3685,0.3583,0,0,0,0,0,0,0.3184,0.3192,0.3133,0.3136,0.3182,0.3207,0.3207,0.3177,0.3268,0.3282,0.321,0.3214,0.3355,0.3371,0.3386,0.3465,0.346,0.3466,0.3469,0.3681,0.3683,0.3686,0,0,0,0,0,0,0.3197,0.3193,0.3134,0.3148,0.3153,0.3211,0.3211,0.3266,0.3272,0.3201,0.3206,0.3212,0.3362,0.3366,0.3378,0.3461,0.3453,0.3459,0.3463,0.3465,0.3683,0.3685,0,0,0,0,0,0,0.3197,0.3194,0.3148,0.3151,0.3156,0.3191,0.3266,0.3264,0.3225,0.3199,0.3229,0.323,0.3359,0.337,0.3373,0.345,0.3458,0.3453,0.3457,0.346,0.3462,0,0,0,0,0,0,0,0.3197,0.3198,0.3116,0.3154,0.3158,0.3163,0.3164,0.3164,0.3225,0.3227,0.3228,0.323,0.3421,0.3427,0.3433,0.3441,0,0,0.3453,0.3455,0,0,0,0,0,0,0,0,0.3202,0.3199,0.3116,0.3117,0.3117,0.3163,0.3164,0.3164,0.3225,0.3227,0.3228,0.3229,0.3423,0.3428,0.3433,0,0,0,0,0,0,0,0,0,0,0,0,0,0,0,0.3116,0.3117,0,0.3163,0.3164,0.3164,0.3226,0.3227,0.3228,0.3229,0.3424,0.3428,0.3432,0,0,0,0,0,0,0,0,0,0,0,0,0,0,0,0,0,0,0,0,0,0,0,0,0,0,0,0,0,0,0,0,0,0,0,0,0,0,0,0,0,0,0,0,0,0,0,0,0,0,0,0,0,0,0,0,0,0,0,0,0,0,0,0,0,0,0,0,0]}],[{"header":{"parameterUnit":"kt","parameterCategory":2,"dx":1,"dy":1,"la1":30.253999710083008,"la2":30.299108505249023,"lo1":-89.0895004272461,"lo2":-89.04439544677734,"nx":28,"ny":28,"refTime":"2022-10-14T21:00:00:Z","depth":"0","parameterNumber":3,"parameterNumberName":"V-component_of_CURRENTS"},"data":[0.0977,0.11,0.1156,0.1249,0.1317,0.1339,0.1357,0.1399,0.1459,0.1499,0.1513,0.157,0.1458,0.061,0.004,-0.0064,-0.0187,-0.0294,-0.0312,-0.0058,-0.0022,0.0012,-0.0021,-0.0338,-0.0339,-0.0593,-0.0596,-0.0599,0.0939,0.1034,0.1167,0.1312,0.1371,0.1439,0.1531,0.1548,0.1584,0.1683,0.1721,0.1644,0.1374,0.1113,0.0641,0.0346,0.0328,0.0216,0.0151,0.0187,0.0556,0.0541,0.0338,0.0338,0.0338,0.0338,0.0339,0.0339,0.09,0.0986,0.1143,0.1276,0.1386,0.1467,0.1513,0.1616,0.1694,0.1755,0.1809,0.1812,0.1621,0.1305,0.1121,0.0764,0.0781,0.0653,0.056,0.0515,0.0488,0.0901,0.0757,0.0757,0.0757,0.0758,0.0758,0,0.0888,0.0955,0.1088,0.1244,0.1354,0.1473,0.1593,0.1635,0.1756,0.1806,0.1852,0.186,0.1702,0.1523,0.1287,0.1165,0.0978,0.1039,0.0909,0.0737,0.0661,0.0648,0.1115,0.1004,0.1006,0.1007,0.1008,0.1009,0.0864,0.094,0.1153,0.1239,0.1331,0.1464,0.1547,0.1671,0.1733,0.1833,0.1851,0.1824,0.1813,0.1627,0.1435,0.1257,0.1156,0.1092,0.1073,0.0944,0.0832,0.0776,0.0782,0.1028,0.1026,0.1024,0.1022,0,0.0853,0.0974,0.1132,0.1322,0.1373,0.1462,0.1628,0.1691,0.1764,0.1827,0.1838,0.187,0.18,0.1718,0.1592,0.1484,0.1263,0.1287,0.1285,0.1259,0.0986,0.0902,0.0655,0.0641,0.111,0.1107,0.1105,0,0.0899,0.0995,0.1185,0.1258,0.1379,0.151,0.1608,0.1685,0.1765,0.1816,0.1833,0.1846,0.1779,0.1722,0.1635,0.1486,0.1522,0.1353,0.1327,0.1322,0.1315,0.1179,0.1092,0.141,0.1411,0.1412,0.1412,0,0.0886,0.1081,0.1203,0.1269,0.1472,0.1524,0.1613,0.17,0.1758,0.1799,0.1825,0.18,0.1784,0.1708,0.1623,0.1629,0.152,0.1513,0.1367,0.1362,0.1317,0.1308,0.1126,0.1413,0.1413,0.1413,0.1414,0,0.0944,0.1059,0.1205,0.139,0.1434,0.151,0.1629,0.1703,0.1757,0.1781,0.1783,0.1781,0.1748,0.1716,0.1631,0.1665,0.159,0.1544,0.154,0.146,0.1446,0.1368,0.1308,0.1176,0.1491,0.1492,0.1492,0,0.0912,0.1075,0.1171,0.1312,0.1412,0.15,0.1568,0.1644,0.1692,0.1738,0.171,0.1736,0.1709,0.1709,0.1669,0.1637,0.1582,0.1621,0.1535,0.1532,0.1477,0.1429,0.1407,0.1327,0.1503,0.1502,0.1501,0,0.089,0.1105,0.1114,0.1199,0.1346,0.1423,0.1495,0.1589,0.1622,0.1672,0.1702,0.1704,0.1693,0.1693,0.1679,0.1641,0.1598,0.163,0.1628,0.1607,0.1527,0.1454,0.144,0.1592,0.1591,0.1591,0.151,0,0.0983,0.1061,0.1103,0.1232,0.1309,0.1389,0.1479,0.1535,0.1571,0.1611,0.1641,0.1657,0.1676,0.166,0.1668,0.1641,0.1637,0.163,0.1625,0.1612,0.1578,0.1571,0.1647,0.1646,0.1646,0.1646,0,0,0.092,0.102,0.1099,0.118,0.1245,0.132,0.1396,0.1447,0.1557,0.1576,0.1581,0.1632,0.1642,0.165,0.1645,0.1657,0.1641,0.1661,0.1619,0.1616,0.1613,0.158,0.1574,0.1645,0.1645,0.1645,0.1645,0,0.096,0.1012,0.1069,0.1148,0.1257,0.1319,0.1342,0.145,0.148,0.1562,0.1561,0.1573,0.1645,0.1638,0.1642,0.1658,0.164,0.1651,0.1653,0.1618,0.1615,0.1613,0.158,0.1575,0.1644,0.1644,0.1644,0,0.0956,0.1028,0.1056,0.1173,0.1236,0.1317,0.1332,0.141,0.146,0.1486,0.1558,0.1573,0.1588,0.1625,0.164,0.1634,0.1635,0.1654,0.1654,0.1657,0.1621,0.1619,0.1616,0.165,0.165,0.165,0,0,0.0978,0.1035,0.114,0.1183,0.1226,0.1308,0.1353,0.1393,0.146,0.1485,0.153,0.1553,0.1576,0.1596,0.1629,0.1671,0.1651,0.1656,0.1656,0.1656,0.1659,0.1623,0.162,0.1651,0.1651,0.1651,0,0,0.0984,0.1098,0.1116,0.1173,0.1258,0.1357,0.1393,0.1424,0.1484,0.1477,0.1513,0.1526,0.157,0.158,0.1588,0.1606,0.1602,0.1603,0.1613,0.1613,0.1613,0.161,0.1581,0,0,0,0,0,0.1058,0.1087,0.1103,0.1122,0.1243,0.1349,0.1367,0.1418,0.1408,0.1445,0.1481,0.148,0.1577,0.1586,0.1601,0.1592,0.166,0.1659,0.1657,0.168,0.1679,0.1679,0,0,0,0,0,0,0.1066,0.1089,0.1103,0.1198,0.1226,0.1346,0.1339,0.1354,0.1405,0.1408,0.1474,0.1482,0.1506,0.1579,0.1593,0.1583,0.1577,0.166,0.1658,0.1657,0.1679,0.1679,0.1679,0,0,0,0,0,0.1073,0.1092,0.1265,0.1198,0.1223,0.1303,0.1337,0.135,0.139,0.1447,0.1457,0.1425,0.1506,0.1519,0.1587,0.1576,0.1568,0.1572,0.1659,0.1658,0.1657,0.1679,0,0,0,0,0,0,0.1078,0.1107,0.1272,0.1282,0.1181,0.1298,0.1316,0.1346,0.1426,0.1438,0.1398,0.1399,0.1507,0.1517,0.1527,0.1571,0.156,0.1565,0.1568,0.1658,0.1657,0.1656,0,0,0,0,0,0,0.1098,0.1115,0.1277,0.1252,0.126,0.1294,0.1309,0.1364,0.1425,0.1372,0.1376,0.1397,0.1479,0.1515,0.1523,0.1608,0.1555,0.1559,0.1563,0.1565,0.1657,0.1656,0,0,0,0,0,0,0.1107,0.1122,0.125,0.1256,0.1263,0.1384,0.1342,0.1453,0.1431,0.1367,0.1428,0.1426,0.1477,0.1486,0.152,0.1603,0.1607,0.1555,0.1558,0.156,0.1562,0,0,0,0,0,0,0,0.1114,0.0994,0.1211,0.1259,0.1265,0.138,0.1383,0.1385,0.1431,0.1429,0.1428,0.1427,0.1527,0.1533,0.1538,0.1598,0,0,0.1554,0.1557,0,0,0,0,0,0,0,0,0.099,0.0993,0.1211,0.1213,0.1216,0.138,0.1382,0.1385,0.143,0.1429,0.1428,0.1427,0.1529,0.1533,0.1537,0,0,0,0,0,0,0,0,0,0,0,0,0,0,0,0.1211,0.1213,0,0.1381,0.1382,0.1384,0.143,0.1429,0.1428,0.1428,0.153,0.1533,0.1537,0,0,0,0,0,0,0,0,0,0,0,0,0,0,0,0,0,0,0,0,0,0,0,0,0,0,0,0,0,0,0,0,0,0,0,0,0,0,0,0,0,0,0,0,0,0,0,0,0,0,0,0,0,0,0,0,0,0,0,0,0,0,0,0,0,0,0,0,0]}]],[[{"header":{"parameterUnit":"kt","parameterCategory":2,"dx":1,"dy":1,"la1":30.253999710083008,"la2":30.299108505249023,"lo1":-89.0895004272461,"lo2":-89.04439544677734,"nx":28,"ny":28,"refTime":"2022-10-14T21:00:00:Z","depth":"2","parameterNumber":2,"parameterNumberName":"U-component_of_CURRENTS"},"data":[0.2227,0.225,0.2274,0.224,0.2252,0.2206,0.2194,0.2071,0.1987,0.1728,0.1575,0.1533,0.1532,0.1252,0.1216,0.1174,0.1445,0.1135,0.1865,0.1829,0.189,0.2022,0.1888,0,0,0,0,0,0.2263,0.2291,0.2306,0.2322,0.2312,0.2348,0.235,0.2299,0.2234,0.2186,0.2151,0.1788,0.1646,0.173,0.1596,0.1624,0.1601,0.1667,0.1593,0.1656,0.1714,0.1591,0.1082,0.1082,0.1082,0.1082,0,0,0.2328,0.233,0.2368,0.2383,0.2399,0.2395,0.2397,0.2422,0.2431,0.2432,0.2507,0.2403,0.2336,0.2212,0.2225,0.226,0.244,0.2381,0.2404,0.2435,0.2345,0.2267,0.2038,0.2043,0.2047,0.2051,0.2055,0,0.2397,0.2419,0.2434,0.2445,0.2461,0.2493,0.2536,0.2551,0.2683,0.271,0.275,0.2774,0.2807,0.2668,0.2737,0.2731,0.291,0.2783,0.3401,0.26,0.2522,0.2535,0.2569,0.236,0.2367,0.2372,0.2376,0.2379,0.2521,0.2492,0.2525,0.2535,0.2541,0.2577,0.2615,0.2728,0.2773,0.2908,0.2917,0.3034,0.3068,0.3167,0.3163,0.3217,0.3437,0.2944,0.2899,0.3413,0.3426,0.3431,0.3435,0.2456,0.2446,0.2438,0.2431,0,0.2607,0.2612,0.2579,0.2624,0.2643,0.2653,0.2747,0.2794,0.2899,0.2967,0.3003,0.3146,0.3237,0.3371,0.3474,0.348,0.3524,0.3507,0.31,0.3058,0.3455,0.3455,0.3404,0.34,0.3397,0.3394,0.3392,0,0.2715,0.2683,0.2707,0.2684,0.2698,0.276,0.2807,0.2889,0.2993,0.3052,0.3183,0.3225,0.3382,0.345,0.3524,0.3539,0.3601,0.3537,0.3544,0.3215,0.3178,0.363,0.3626,0.3665,0.3665,0.3665,0.3666,0,0.2785,0.2782,0.2748,0.2753,0.2801,0.2826,0.2877,0.2995,0.3059,0.3169,0.3216,0.3335,0.3385,0.3456,0.3552,0.3568,0.3614,0.3647,0.3566,0.3559,0.3199,0.3159,0.3666,0.3666,0.3666,0.3666,0.3666,0,0.2854,0.284,0.2806,0.283,0.2841,0.2859,0.2957,0.3014,0.3133,0.3199,0.3288,0.3364,0.3451,0.3475,0.357,0.3572,0.3602,0.3632,0.3633,0.3494,0.3512,0.313,0.3077,0.365,0.365,0.365,0.3649,0,0.2903,0.2866,0.2882,0.2881,0.2868,0.2947,0.2999,0.3079,0.3157,0.3228,0.3319,0.3392,0.345,0.3501,0.3542,0.3604,0.3621,0.3617,0.3621,0.3619,0.3501,0.3536,0.3147,0.3097,0.3649,0.3649,0.3649,0,0.293,0.2915,0.2915,0.2907,0.2952,0.2975,0.3038,0.3102,0.3149,0.3238,0.3286,0.3404,0.3454,0.3483,0.3546,0.3574,0.3619,0.3586,0.3585,0.356,0.3656,0.3549,0.3539,0.3656,0.3657,0.3657,0.3649,0,0.2921,0.2923,0.2929,0.2932,0.2968,0.2985,0.3036,0.3101,0.3158,0.3197,0.3301,0.3372,0.344,0.3488,0.3514,0.3575,0.3565,0.3579,0.353,0.3585,0.3577,0.3577,0.355,0.3549,0.3548,0.3547,0,0,0.2934,0.2922,0.2955,0.2953,0.2967,0.3026,0.303,0.3076,0.3147,0.3185,0.3204,0.3333,0.3381,0.3455,0.3486,0.3524,0.3524,0.349,0.357,0.3572,0.3575,0.3569,0.3571,0.3545,0.3544,0.3544,0.3544,0,0.2905,0.2946,0.294,0.2962,0.2994,0.3011,0.3033,0.3073,0.3109,0.3179,0.3211,0.3289,0.3364,0.3395,0.3419,0.3507,0.3478,0.3536,0.3536,0.3561,0.3565,0.3569,0.3564,0.3567,0.3541,0.3541,0.3541,0,0.2895,0.29,0.2909,0.2944,0.2966,0.2979,0.2998,0.3039,0.3062,0.3096,0.3163,0.3217,0.3255,0.3325,0.3362,0.3341,0.3428,0.3422,0.3428,0.3381,0.3402,0.3408,0.3414,0.3337,0.3336,0.3336,0,0,0.2874,0.2882,0.2905,0.2938,0.2952,0.2982,0.3008,0.3023,0.3065,0.3092,0.3132,0.3177,0.3227,0.3261,0.3297,0.3368,0.3342,0.3397,0.3407,0.3415,0.3373,0.3396,0.3403,0.3333,0.3333,0.3333,0,0,0.2861,0.2864,0.2877,0.2911,0.2943,0.2958,0.2989,0.3012,0.3072,0.3082,0.3105,0.3118,0.3201,0.3208,0.3176,0.328,0.3239,0.3247,0.3275,0.3288,0.3297,0.3234,0.3136,0,0,0,0,0,0.2832,0.2858,0.287,0.2878,0.292,0.2952,0.296,0.2984,0.2999,0.3029,0.3077,0.3062,0.319,0.3161,0.3173,0.3211,0.3302,0.3307,0.3313,0.3366,0.3378,0.3389,0,0,0,0,0,0,0.2835,0.2843,0.2869,0.2882,0.2892,0.295,0.2938,0.2945,0.2997,0.3,0.3054,0.3062,0.3061,0.3155,0.3165,0.3201,0.3132,0.3304,0.3309,0.3313,0.337,0.338,0.3389,0,0,0,0,0,0.2837,0.2844,0.2904,0.2882,0.2891,0.2928,0.2938,0.2944,0.2994,0.301,0.302,0.3017,0.306,0.3073,0.3161,0.3197,0.3125,0.3129,0.3307,0.3311,0.3314,0.3375,0,0,0,0,0,0,0.2839,0.285,0.2906,0.291,0.2881,0.2927,0.2934,0.2943,0.3002,0.3011,0.2969,0.297,0.306,0.307,0.3079,0.3195,0.3119,0.3123,0.3126,0.331,0.3313,0.3315,0,0,0,0,0,0,0.2847,0.2853,0.2908,0.2905,0.2909,0.2925,0.2932,0.2973,0.3004,0.2958,0.2961,0.2969,0.3056,0.3067,0.3075,0.3137,0.3114,0.3118,0.3121,0.3123,0.3312,0.3315,0,0,0,0,0,0,0.285,0.2856,0.2905,0.2908,0.2911,0.2958,0.2964,0.3011,0.2983,0.2956,0.2983,0.2983,0.3054,0.3061,0.3072,0.3131,0.3135,0.3115,0.3117,0.3119,0.312,0,0,0,0,0,0,0,0.2853,0.2809,0.2883,0.2909,0.2912,0.2948,0.2949,0.295,0.2983,0.2983,0.2983,0.2983,0.3092,0.3097,0.3101,0.3126,0,0,0.3114,0.3116,0,0,0,0,0,0,0,0,0.2808,0.2809,0.2883,0.2884,0.2885,0.2949,0.2949,0.295,0.2983,0.2983,0.2983,0.2983,0.3094,0.3097,0.31,0,0,0,0,0,0,0,0,0,0,0,0,0,0,0,0.2883,0.2884,0,0.2949,0.2949,0.295,0.2983,0.2983,0.2983,0.2983,0.3095,0.3097,0.31,0,0,0,0,0,0,0,0,0,0,0,0,0,0,0,0,0,0,0,0,0,0,0,0,0,0,0,0,0,0,0,0,0,0,0,0,0,0,0,0,0,0,0,0,0,0,0,0,0,0,0,0,0,0,0,0,0,0,0,0,0,0,0,0,0,0,0,0,0]}],[{"header":{"parameterUnit":"kt","parameterCategory":2,"dx":1,"dy":1,"la1":30.253999710083008,"la2":30.299108505249023,"lo1":-89.0895004272461,"lo2":-89.04439544677734,"nx":28,"ny":28,"refTime":"2022-10-14T21:00:00:Z","depth":"2","parameterNumber":3,"parameterNumberName":"V-component_of_CURRENTS"},"data":[-0.0042,-0.0149,-0.0184,-0.0341,-0.0303,-0.0419,-0.052,-0.057,-0.0516,-0.0317,-0.0069,0.0237,0.0143,0.0038,-0.0147,-0.028,-0.0418,-0.0288,-0.0245,-0.0517,-0.0539,-0.0726,-0.0634,0,0,0,0,0,-0.0008,0.001,0.0009,-0.0035,-0.0121,-0.0005,-0.0208,-0.0308,-0.046,-0.0334,-0.028,-0.0134,-0.0043,-0.0101,-0.0241,-0.0284,-0.0409,-0.035,-0.0574,-0.0598,-0.0622,-0.0549,-0.0371,-0.0371,-0.0372,-0.0372,0,0,0.0093,0.0095,0.0114,0.0133,0.0157,0.0043,-0.0037,-0.0133,-0.0283,-0.0423,-0.0429,-0.0312,-0.0355,-0.0161,-0.0293,-0.0428,-0.0448,-0.0554,-0.0574,-0.0596,-0.051,-0.0326,-0.0327,-0.0327,-0.0327,-0.0327,-0.0327,0,0.0104,0.0134,0.0184,0.0232,0.0265,0.0241,0.0208,0.009,-0.0054,-0.0157,-0.038,-0.0401,-0.0469,-0.0499,-0.0441,-0.052,-0.077,-0.0721,-0.0871,-0.0935,-0.0759,-0.0822,-0.0822,-0.0864,-0.0867,-0.0869,-0.0871,-0.0872,0.0014,0.0108,0.0223,0.0252,0.0334,0.0377,0.0337,0.0308,0.0173,-0.0066,-0.022,-0.0365,-0.0452,-0.0634,-0.0723,-0.0767,-0.0908,-0.0802,-0.082,-0.0779,-0.0842,-0.0838,-0.0833,-0.0903,-0.0899,-0.0896,-0.0893,0,-0.009,0.0045,0.0189,0.0283,0.0312,0.0347,0.0331,0.0243,0.0176,-0.0028,-0.0056,-0.0294,-0.0452,-0.062,-0.09,-0.0925,-0.1057,-0.1048,-0.0935,-0.0979,-0.0878,-0.0865,-0.0911,-0.0904,-0.0897,-0.0892,-0.0887,0,-0.0187,-0.0036,0.0079,0.0185,0.0248,0.0271,0.0266,0.0248,0.0103,-0.0045,-0.0113,-0.0294,-0.0512,-0.07,-0.0799,-0.0905,-0.109,-0.097,-0.1036,-0.1061,-0.1038,-0.1307,-0.1303,-0.134,-0.134,-0.1339,-0.1339,0,-0.0384,-0.0133,0.0034,0.0096,0.0172,0.0207,0.0225,0.0108,0.0032,-0.0064,-0.0152,-0.0339,-0.0476,-0.0636,-0.0789,-0.0797,-0.1067,-0.1177,-0.1043,-0.1025,-0.1141,-0.1125,-0.1338,-0.1338,-0.1338,-0.1338,-0.1338,0,-0.0451,-0.0329,-0.0085,-0.0012,0.0022,0.0115,0.0041,0.0072,-0.0079,-0.0111,-0.0222,-0.0357,-0.0497,-0.0514,-0.0785,-0.0719,-0.081,-0.0935,-0.0946,-0.0801,-0.0881,-0.0939,-0.089,-0.1044,-0.1041,-0.1039,-0.1038,0,-0.0687,-0.0417,-0.0368,-0.0161,-0.0056,-0.0089,-0.0075,-0.0097,-0.0131,-0.0179,-0.035,-0.0423,-0.0431,-0.0481,-0.0579,-0.0795,-0.0834,-0.0753,-0.108,-0.1087,-0.0873,-0.0813,-0.0831,-0.0867,-0.1013,-0.1015,-0.1017,0,-0.0887,-0.0678,-0.0627,-0.0556,-0.0432,-0.0392,-0.0317,-0.0307,-0.0341,-0.0246,-0.0311,-0.0387,-0.0455,-0.0543,-0.0665,-0.0752,-0.0791,-0.0786,-0.08,-0.0787,-0.1041,-0.0805,-0.0799,-0.0932,-0.0936,-0.0939,-0.0997,0,-0.0971,-0.0861,-0.0783,-0.0646,-0.0608,-0.0474,-0.0481,-0.0413,-0.0387,-0.0397,-0.045,-0.0529,-0.0619,-0.0648,-0.0694,-0.0806,-0.0796,-0.0925,-0.0973,-0.0949,-0.0969,-0.0984,-0.0855,-0.0858,-0.0861,-0.0863,0,0,-0.1185,-0.1056,-0.1079,-0.0943,-0.0894,-0.0907,-0.0774,-0.0752,-0.0634,-0.0651,-0.0604,-0.0702,-0.0751,-0.0905,-0.0855,-0.0884,-0.0929,-0.0823,-0.0942,-0.0949,-0.0957,-0.0976,-0.0987,-0.0867,-0.0868,-0.0869,-0.087,0,-0.1213,-0.123,-0.1126,-0.1066,-0.0977,-0.0968,-0.0925,-0.0825,-0.0806,-0.0685,-0.08,-0.0836,-0.0783,-0.0908,-0.098,-0.0908,-0.0993,-0.0906,-0.0781,-0.0958,-0.0962,-0.0966,-0.0984,-0.0993,-0.0876,-0.0876,-0.0876,0,-0.133,-0.1307,-0.1284,-0.1222,-0.1178,-0.1078,-0.1146,-0.104,-0.0975,-0.1053,-0.0905,-0.0968,-0.1082,-0.1047,-0.1033,-0.105,-0.1044,-0.101,-0.0999,-0.0983,-0.1171,-0.1174,-0.1176,-0.1147,-0.1147,-0.1148,0,0,-0.135,-0.1302,-0.1283,-0.1233,-0.1201,-0.1171,-0.1133,-0.1106,-0.1072,-0.1046,-0.1012,-0.1033,-0.1102,-0.1079,-0.1103,-0.1036,-0.1121,-0.1036,-0.1023,-0.1012,-0.099,-0.1172,-0.1174,-0.1148,-0.1148,-0.1148,0,0,-0.1361,-0.1339,-0.1354,-0.1306,-0.1255,-0.1222,-0.1162,-0.1159,-0.1104,-0.1089,-0.1145,-0.1145,-0.1109,-0.1133,-0.1135,-0.112,-0.1185,-0.1183,-0.1065,-0.1049,-0.1037,-0.1007,-0.122,0,0,0,0,0,-0.1389,-0.1344,-0.1359,-0.1352,-0.1304,-0.1223,-0.121,-0.12,-0.1213,-0.1149,-0.1153,-0.1198,-0.1165,-0.1166,-0.1162,-0.1133,-0.1156,-0.1155,-0.1153,-0.0991,-0.0975,-0.0961,0,0,0,0,0,0,-0.1387,-0.138,-0.136,-0.1335,-0.1325,-0.1226,-0.1287,-0.1281,-0.1219,-0.1218,-0.1197,-0.12,-0.1237,-0.1172,-0.1167,-0.114,-0.1222,-0.1155,-0.1154,-0.1153,-0.0986,-0.0972,-0.0961,0,0,0,0,0,-0.1385,-0.1379,-0.131,-0.1334,-0.1325,-0.1302,-0.1288,-0.1283,-0.1214,-0.1254,-0.1252,-0.1205,-0.1236,-0.1232,-0.1169,-0.1141,-0.1226,-0.1224,-0.1155,-0.1154,-0.1153,-0.0979,0,0,0,0,0,0,-0.1384,-0.1356,-0.1307,-0.1303,-0.1356,-0.1304,-0.1298,-0.1286,-0.1253,-0.1251,-0.1272,-0.1273,-0.1234,-0.1232,-0.1229,-0.114,-0.1229,-0.1227,-0.1226,-0.1154,-0.1153,-0.1153,0,0,0,0,0,0,-0.136,-0.1353,-0.1305,-0.1332,-0.1331,-0.1306,-0.1301,-0.1274,-0.1254,-0.1271,-0.1272,-0.1273,-0.1261,-0.1232,-0.1229,-0.1185,-0.1232,-0.123,-0.1228,-0.1227,-0.1153,-0.1153,0,0,0,0,0,0,-0.1356,-0.135,-0.1333,-0.1331,-0.133,-0.1275,-0.1283,-0.1242,-0.125,-0.1273,-0.1254,-0.1257,-0.1262,-0.1258,-0.1229,-0.1186,-0.1185,-0.1232,-0.123,-0.1229,-0.1229,0,0,0,0,0,0,0,-0.1353,-0.1405,-0.1342,-0.1331,-0.1329,-0.1266,-0.1264,-0.1262,-0.125,-0.1252,-0.1254,-0.1256,-0.1243,-0.1241,-0.1239,-0.1186,0,0,-0.1232,-0.1231,0,0,0,0,0,0,0,0,-0.1406,-0.1405,-0.1342,-0.1341,-0.1341,-0.1266,-0.1264,-0.1263,-0.125,-0.1252,-0.1254,-0.1255,-0.1243,-0.1241,-0.1239,0,0,0,0,0,0,0,0,0,0,0,0,0,0,0,-0.1342,-0.1341,0,-0.1266,-0.1264,-0.1263,-0.1251,-0.1252,-0.1253,-0.1254,-0.1242,-0.1241,-0.1239,0,0,0,0,0,0,0,0,0,0,0,0,0,0,0,0,0,0,0,0,0,0,0,0,0,0,0,0,0,0,0,0,0,0,0,0,0,0,0,0,0,0,0,0,0,0,0,0,0,0,0,0,0,0,0,0,0,0,0,0,0,0,0,0,0,0,0,0,0]}]],[[{"header":{"parameterUnit":"kt","parameterCategory":2,"dx":1,"dy":1,"la1":30.253999710083008,"la2":30.299108505249023,"lo1":-89.0895004272461,"lo2":-89.04439544677734,"nx":28,"ny":28,"refTime":"2022-10-14T21:00:00:Z","depth":"4","parameterNumber":2,"parameterNumberName":"U-component_of_CURRENTS"},"data":[0.0147,0.0183,0.0219,0.0232,0.0271,0.0273,0.028,0.0256,0.0228,0.0229,0.023,0.0276,0.027,0.0254,0.0281,0.0281,0.0152,0.0267,0.0269,0.0009,-0.001,-0.0026,-0.0042,0,0,0,0,0,0.0201,0.0221,0.0253,0.0326,0.036,0.0404,0.037,0.0354,0.0323,0.0268,0.029,0.0239,0.0261,0.0213,0.027,0.0193,0.0101,0.0257,0.0036,-0.0003,-0.0023,-0.0031,0,0,0,0,0,0,0.0262,0.028,0.0364,0.0441,0.048,0.0465,0.0472,0.0415,0.0374,0.0301,0.0255,0.0219,0.0192,0.0208,0.0138,0.016,0.0125,0.0086,0.0062,0.0041,0.0053,0.0253,0.0344,0,0,0,0,0,0.0311,0.0395,0.0432,0.0528,0.0577,0.0565,0.0568,0.0523,0.0456,0.0431,0.0324,0.0301,0.0224,0.0128,0.0153,0.0032,-0.0138,-0.0092,-0.0106,-0.0219,-0.0081,-0.0098,-0.0104,-0.0101,-0.0104,-0.0106,-0.0107,0,0.0367,0.0417,0.0541,0.0573,0.0633,0.0684,0.0659,0.065,0.0554,0.0446,0.0344,0.0312,0.021,0.0089,-0.0055,-0.012,-0.0165,-0.0145,-0.0265,-0.0114,-0.0126,-0.0127,-0.0126,-0.0123,-0.0122,-0.0121,-0.0119,0,0.0373,0.0459,0.0521,0.0591,0.062,0.0654,0.0648,0.0573,0.056,0.0424,0.0432,0.0273,0.0189,0.0042,-0.0164,-0.0208,-0.0327,-0.0314,-0.0347,-0.0366,-0.016,-0.0153,-0.015,-0.0144,-0.0139,-0.0135,-0.0131,0,0.0386,0.0437,0.0545,0.0576,0.06,0.0603,0.0575,0.0528,0.0432,0.0318,0.0269,0.0154,-0.0008,-0.013,-0.0223,-0.0278,-0.0401,-0.0354,-0.0365,-0.0534,-0.0525,-0.0612,-0.0612,-0.0629,-0.0629,-0.063,-0.0631,0,0.0358,0.0442,0.0502,0.0517,0.0511,0.0523,0.0513,0.0386,0.0308,0.023,0.0206,0.0026,-0.0012,-0.0146,-0.0245,-0.0254,-0.0436,-0.051,-0.0388,-0.037,-0.0617,-0.0614,-0.0632,-0.0632,-0.0632,-0.0632,-0.0633,0,0.0346,0.0395,0.047,0.0468,0.0477,0.0494,0.0401,0.0353,0.0197,0.0179,0.0082,0.0006,-0.0141,-0.0126,-0.0333,-0.0281,-0.0307,-0.0402,-0.0403,-0.0325,-0.0327,-0.0342,-0.0351,-0.0349,-0.0348,-0.0347,-0.0346,0,0.0293,0.0381,0.0385,0.0431,0.0461,0.0427,0.0362,0.0292,0.0247,0.0181,0.002,-0.0061,-0.0083,-0.0082,-0.0191,-0.0344,-0.037,-0.0346,-0.0472,-0.0474,-0.0284,-0.0269,-0.0432,-0.0331,-0.0333,-0.0334,-0.0335,0,0.0239,0.0314,0.034,0.0368,0.0394,0.0392,0.0345,0.0274,0.0232,0.023,0.0155,-0.0049,-0.0034,-0.0159,-0.026,-0.0353,-0.0339,-0.0327,-0.0336,-0.0227,-0.0433,-0.0265,-0.0257,-0.0414,-0.0418,-0.0421,-0.0325,0,0.02,0.0259,0.0293,0.0337,0.0339,0.0384,0.0338,0.0344,0.0373,0.0326,0.0203,0.0069,-0.0067,-0.0129,-0.0197,-0.0344,-0.0278,-0.0377,-0.0385,-0.0411,-0.0358,-0.0365,-0.0314,-0.0316,-0.0318,-0.032,0,0,0.0152,0.0198,0.0218,0.0263,0.0277,0.0298,0.0328,0.0294,0.0295,0.0253,0.0324,0.0076,-0.003,-0.0276,-0.0268,-0.0333,-0.0319,-0.0276,-0.04,-0.0408,-0.0416,-0.0367,-0.0371,-0.0324,-0.0325,-0.0325,-0.0326,0,0.0119,0.016,0.0206,0.0223,0.028,0.0257,0.0296,0.0322,0.0322,0.0298,0.0199,0.0112,-0.0008,-0.0174,-0.0282,-0.0341,-0.0351,-0.0346,-0.0294,-0.0413,-0.0418,-0.0423,-0.0374,-0.0377,-0.0331,-0.0331,-0.0331,0,0.0078,0.0104,0.0124,0.0157,0.0181,0.0189,0.0203,0.026,0.0244,0.0171,0.0167,0.0082,-0.0104,-0.0204,-0.0245,-0.0251,-0.0365,-0.0349,-0.0343,-0.0358,-0.0485,-0.0491,-0.0496,-0.0423,-0.0423,-0.0422,0,0,0.0065,0.0103,0.0109,0.0149,0.0169,0.0182,0.0201,0.0224,0.0195,0.02,0.0157,0.0061,-0.0081,-0.0116,-0.0236,-0.0314,-0.0363,-0.035,-0.0346,-0.0342,-0.0353,-0.0479,-0.0485,-0.0419,-0.0419,-0.0419,0,0,0.0046,0.0068,0.0091,0.0128,0.0144,0.0122,0.0161,0.018,0.0159,0.0187,0.0087,0.0063,-0.0014,-0.0095,-0.0047,-0.0225,-0.0259,-0.027,-0.013,-0.0127,-0.0123,-0.0104,-0.0106,0,0,0,0,0,0.0032,0.006,0.0081,0.0089,0.0107,0.0108,0.0108,0.0136,0.018,0.0207,0.0146,0.0112,-0.011,-0.0069,-0.0097,-0.0107,-0.0384,-0.039,-0.0396,-0.0239,-0.0235,-0.0231,0,0,0,0,0,0,0.0035,0.0043,0.0079,0.006,0.0065,0.0106,0.0108,0.0113,0.0179,0.0188,0.0121,0.0105,0.002,-0.006,-0.0084,-0.0091,-0.0098,-0.0386,-0.0392,-0.0396,-0.0238,-0.0234,-0.0231,0,0,0,0,0,0.0037,0.0044,0.0081,0.0058,0.0062,0.0095,0.011,0.0115,0.018,0.0067,0.006,0.0215,0.0019,-0.0003,-0.0075,-0.0078,-0.0082,-0.0091,-0.039,-0.0394,-0.0398,-0.0236,0,0,0,0,0,0,0.0039,0.0026,0.0081,0.0082,0.0088,0.0095,0.0102,0.0117,0.0054,0.0051,0.0145,0.0151,0.0018,0.0001,-0.0016,-0.0068,-0.0069,-0.0078,-0.0083,-0.0393,-0.0396,-0.0399,0,0,0,0,0,0,0.0023,0.0026,0.0081,0.0117,0.0121,0.0096,0.0102,0.0,0.0049,0.0132,0.0138,0.0148,0.0019,0.0003,-0.001,-0.0169,-0.0059,-0.0067,-0.0073,-0.0077,-0.0396,-0.0398,0,0,0,0,0,0,0.0024,0.0026,0.0116,0.012,0.0124,0.0126,0.0,0.0001,0.0144,0.0131,0.0152,0.0156,0.0019,0.0007,-0.0007,-0.0159,-0.0167,-0.0059,-0.0065,-0.0069,-0.0072,0,0,0,0,0,0,0,0.0024,0.0011,0.0087,0.0122,0.0126,0.0089,0.0088,0.0087,0.0145,0.0148,0.0152,0.0155,-0.001,-0.0019,-0.0029,-0.0152,0,0,-0.0058,-0.0062,0,0,0,0,0,0,0,0,0.001,0.0011,0.0087,0.0087,0.0088,0.0089,0.0088,0.0087,0.0146,0.0148,0.0151,0.0153,-0.0012,-0.002,-0.0028,0,0,0,0,0,0,0,0,0,0,0,0,0,0,0,0.0087,0.0087,0,0.0088,0.0088,0.0087,0.0146,0.0148,0.015,0.0152,-0.0014,-0.0021,-0.0027,0,0,0,0,0,0,0,0,0,0,0,0,0,0,0,0,0,0,0,0,0,0,0,0,0,0,0,0,0,0,0,0,0,0,0,0,0,0,0,0,0,0,0,0,0,0,0,0,0,0,0,0,0,0,0,0,0,0,0,0,0,0,0,0,0,0,0,0,0]}],[{"header":{"parameterUnit":"kt","parameterCategory":2,"dx":1,"dy":1,"la1":30.253999710083008,"la2":30.299108505249023,"lo1":-89.0895004272461,"lo2":-89.04439544677734,"nx":28,"ny":28,"refTime":"2022-10-14T21:00:00:Z","depth":"4","parameterNumber":3,"parameterNumberName":"V-component_of_CURRENTS"},"data":[-0.0049,-0.0015,-0.0013,0.0006,0.0017,-0.0008,-0.0057,-0.0133,-0.0173,-0.0239,-0.0287,-0.032,-0.0409,-0.0385,-0.05,-0.0521,-0.0471,-0.0667,-0.0668,-0.058,-0.0574,-0.0569,-0.0649,0,0,0,0,0,-0.0082,-0.0063,-0.0032,-0.0053,-0.0044,-0.0043,-0.012,-0.0173,-0.0252,-0.027,-0.0307,-0.0362,-0.0446,-0.0508,-0.0531,-0.0593,-0.058,-0.0624,-0.0546,-0.0577,-0.057,-0.065,0,0,0,0,0,0,-0.0126,-0.0123,-0.0117,-0.0101,-0.0094,-0.0135,-0.0173,-0.021,-0.0238,-0.0322,-0.0342,-0.0421,-0.0469,-0.0542,-0.0552,-0.0572,-0.0566,-0.0537,-0.0533,-0.0527,-0.0585,-0.0629,-0.0577,0,0,0,0,0,-0.0164,-0.0177,-0.0206,-0.0179,-0.0183,-0.0212,-0.0235,-0.0247,-0.0319,-0.0331,-0.039,-0.0448,-0.0491,-0.0558,-0.0558,-0.0548,-0.0566,-0.0548,-0.0544,-0.0562,-0.0594,-0.0586,-0.0589,-0.0546,-0.0545,-0.0544,-0.0544,0,-0.0169,-0.02,-0.0257,-0.0255,-0.029,-0.0307,-0.0312,-0.0369,-0.0384,-0.0441,-0.0446,-0.0489,-0.0549,-0.0541,-0.0585,-0.0575,-0.0561,-0.0532,-0.0552,-0.0585,-0.0577,-0.0582,-0.0587,-0.0539,-0.0539,-0.0539,-0.054,0,-0.0156,-0.0224,-0.0288,-0.0365,-0.0378,-0.0391,-0.0428,-0.0433,-0.0471,-0.0482,-0.0487,-0.0568,-0.0594,-0.0615,-0.0568,-0.0579,-0.0551,-0.053,-0.0515,-0.0503,-0.0573,-0.058,-0.053,-0.0532,-0.0534,-0.0535,-0.0536,0,-0.0172,-0.0231,-0.031,-0.0353,-0.0384,-0.0471,-0.049,-0.0536,-0.0569,-0.0576,-0.0642,-0.0653,-0.0668,-0.0659,-0.0638,-0.0613,-0.0567,-0.0579,-0.0567,-0.0542,-0.0549,-0.0513,-0.0516,-0.0488,-0.0489,-0.049,-0.049,0,-0.0146,-0.0272,-0.0335,-0.038,-0.0496,-0.052,-0.0562,-0.0626,-0.0638,-0.0682,-0.0682,-0.0714,-0.0696,-0.0668,-0.0651,-0.0657,-0.0582,-0.0573,-0.0578,-0.0582,-0.0518,-0.0521,-0.0491,-0.0491,-0.0491,-0.0492,-0.0492,0,-0.0186,-0.0249,-0.0347,-0.044,-0.0469,-0.0526,-0.0591,-0.0647,-0.0698,-0.0717,-0.0739,-0.0757,-0.0754,-0.0747,-0.0697,-0.0728,-0.0672,-0.064,-0.0635,-0.0677,-0.0675,-0.0598,-0.0585,-0.0586,-0.0587,-0.0588,-0.0589,0,-0.0132,-0.0246,-0.0314,-0.0416,-0.0479,-0.0548,-0.0602,-0.0665,-0.0708,-0.0745,-0.0748,-0.0765,-0.0781,-0.0773,-0.0759,-0.0728,-0.0689,-0.0732,-0.062,-0.0616,-0.0687,-0.0689,-0.069,-0.0604,-0.0602,-0.06,-0.06,0,-0.0095,-0.0236,-0.025,-0.0295,-0.0425,-0.0481,-0.0555,-0.063,-0.0645,-0.0723,-0.074,-0.0774,-0.0769,-0.0768,-0.0768,-0.0741,-0.0708,-0.0724,-0.0721,-0.0697,-0.0624,-0.0697,-0.0695,-0.0696,-0.0695,-0.0694,-0.061,0,-0.0121,-0.0183,-0.0221,-0.0323,-0.0389,-0.0462,-0.0538,-0.0593,-0.0625,-0.0666,-0.0701,-0.073,-0.0745,-0.0749,-0.0755,-0.0738,-0.0726,-0.0715,-0.0696,-0.0697,-0.066,-0.0653,-0.073,-0.0729,-0.0729,-0.0728,0,0,-0.0052,-0.0129,-0.0186,-0.0259,-0.0311,-0.0375,-0.0442,-0.0499,-0.0607,-0.0621,-0.063,-0.0686,-0.0701,-0.0714,-0.072,-0.0735,-0.0709,-0.0731,-0.0701,-0.0698,-0.0695,-0.0661,-0.0654,-0.0727,-0.0727,-0.0726,-0.0726,0,-0.0064,-0.0105,-0.0153,-0.0224,-0.0318,-0.0372,-0.0393,-0.0496,-0.0526,-0.0609,-0.0605,-0.0624,-0.0694,-0.069,-0.0693,-0.0729,-0.0697,-0.0727,-0.0736,-0.0696,-0.0695,-0.0693,-0.0659,-0.0654,-0.0724,-0.0724,-0.0724,0,-0.004,-0.0094,-0.0118,-0.0222,-0.0282,-0.0357,-0.0366,-0.0443,-0.0493,-0.0509,-0.0587,-0.0602,-0.061,-0.0655,-0.0672,-0.0661,-0.0677,-0.0697,-0.0699,-0.069,-0.0647,-0.0646,-0.0645,-0.0662,-0.0662,-0.0662,0,0,-0.0045,-0.0089,-0.0178,-0.0228,-0.0264,-0.0342,-0.0388,-0.0424,-0.0486,-0.0511,-0.0554,-0.0573,-0.0594,-0.0614,-0.0644,-0.0695,-0.0663,-0.0692,-0.0694,-0.0697,-0.069,-0.0648,-0.0647,-0.0662,-0.0662,-0.0662,0,0,-0.0047,-0.013,-0.0146,-0.0203,-0.0284,-0.0379,-0.0419,-0.0448,-0.0509,-0.0499,-0.0525,-0.0535,-0.0581,-0.0586,-0.0587,-0.0624,-0.0606,-0.0608,-0.0637,-0.0641,-0.0644,-0.0628,-0.0571,0,0,0,0,0,-0.0087,-0.012,-0.0133,-0.0151,-0.0269,-0.0373,-0.0393,-0.0439,-0.0427,-0.0468,-0.0496,-0.0489,-0.0578,-0.0581,-0.0595,-0.0602,-0.0665,-0.0664,-0.0664,-0.0712,-0.0716,-0.0719,0,0,0,0,0,0,-0.0094,-0.0115,-0.0133,-0.0222,-0.0249,-0.0371,-0.0355,-0.0371,-0.0423,-0.0425,-0.0485,-0.0491,-0.0508,-0.0574,-0.0587,-0.0593,-0.0566,-0.0665,-0.0664,-0.0664,-0.0713,-0.0716,-0.0719,0,0,0,0,0,-0.0101,-0.0118,-0.0285,-0.0223,-0.0247,-0.0322,-0.0353,-0.0366,-0.0412,-0.0455,-0.0463,-0.0442,-0.0508,-0.052,-0.0582,-0.0586,-0.0558,-0.0562,-0.0664,-0.0664,-0.0664,-0.0715,0,0,0,0,0,0,-0.0105,-0.0142,-0.0292,-0.0303,-0.0199,-0.0317,-0.0334,-0.0361,-0.0439,-0.0449,-0.041,-0.041,-0.051,-0.0518,-0.0527,-0.0582,-0.0551,-0.0555,-0.0558,-0.0664,-0.0664,-0.0664,0,0,0,0,0,0,-0.0133,-0.015,-0.0298,-0.0264,-0.0271,-0.0313,-0.0327,-0.0382,-0.0437,-0.0389,-0.0392,-0.0408,-0.0474,-0.0517,-0.0524,-0.0611,-0.0545,-0.055,-0.0553,-0.0555,-0.0664,-0.0664,0,0,0,0,0,0,-0.0142,-0.0157,-0.0261,-0.0267,-0.0273,-0.0397,-0.0361,-0.0466,-0.0447,-0.0384,-0.0442,-0.0439,-0.0471,-0.048,-0.0522,-0.0606,-0.0609,-0.0545,-0.0548,-0.0551,-0.0552,0,0,0,0,0,0,0,-0.0149,-0.003,-0.0226,-0.027,-0.0275,-0.0399,-0.0402,-0.0406,-0.0446,-0.0444,-0.0442,-0.044,-0.0519,-0.0524,-0.0529,-0.0602,0,0,-0.0545,-0.0547,0,0,0,0,0,0,0,0,-0.0025,-0.0029,-0.0227,-0.0229,-0.0231,-0.04,-0.0402,-0.0405,-0.0446,-0.0444,-0.0443,-0.0441,-0.0521,-0.0525,-0.0529,0,0,0,0,0,0,0,0,0,0,0,0,0,0,0,-0.0227,-0.0228,0,-0.04,-0.0402,-0.0404,-0.0446,-0.0444,-0.0443,-0.0442,-0.0522,-0.0525,-0.0528,0,0,0,0,0,0,0,0,0,0,0,0,0,0,0,0,0,0,0,0,0,0,0,0,0,0,0,0,0,0,0,0,0,0,0,0,0,0,0,0,0,0,0,0,0,0,0,0,0,0,0,0,0,0,0,0,0,0,0,0,0,0,0,0,0,0,0,0,0]}]]]